This is the latest recevied weather packets stored in our database for station/object K5MGY. If no packets are shown the sender has not sent any weather packets the latest 10 day(s).
| Time | Temp. | Humidity | Pressure | Rain* | Wind** | Luminosity | Snow |
|---|---|---|---|---|---|---|---|
| 1777297281 | 25° C | 83% | 1031.8 hPa | 0 mm | - | 109 W/m² | - |
| 1777296979 | 24.44° C | 84% | 1031.8 hPa | 0 mm | - | 91 W/m² | - |
| 1777296676 | 24.44° C | 84% | 1031.9 hPa | 0 mm | - | 66 W/m² | - |
| 1777296361 | 24.44° C | 84% | 1031.7 hPa | 0 mm | - | 72 W/m² | - |
| 1777296056 | 24.44° C | 85% | 1031.9 hPa | 0 mm | - | 53 W/m² | - |
| 1777295754 | 24.44° C | 85% | 1032 hPa | 0 mm | - | 50 W/m² | - |
| 1777295452 | 23.89° C | 85% | 1031.9 hPa | 0 mm | - | 47 W/m² | - |
| 1777295149 | 23.89° C | 86% | 1031.7 hPa | 0 mm | - | 43 W/m² | - |
| 1777294846 | 23.89° C | 86% | 1031.6 hPa | 0 mm | - | 40 W/m² | - |
| 1777294546 | 23.89° C | 86% | 1031.6 hPa | 0 mm | - | 36 W/m² | - |
| 1777294243 | 23.89° C | 86% | 1031.5 hPa | 0 mm | - | 33 W/m² | - |
| 1777293940 | 23.89° C | 87% | 1031.3 hPa | 0 mm | - | 30 W/m² | - |
| 1777293636 | 23.89° C | 87% | 1031.6 hPa | 0 mm | - | 26 W/m² | - |
| 1777293331 | 23.33° C | 87% | 1031.3 hPa | 0 mm | - | 23 W/m² | - |
| 1777293027 | 23.33° C | 87% | 1031.2 hPa | 0 mm | - | 20 W/m² | - |
| 1777292726 | 23.33° C | 86% | 1031.1 hPa | 0 mm | - | 17 W/m² | - |
| 1777292422 | 23.33° C | 86% | 1031.3 hPa | 0 mm | - | 14 W/m² | - |
| 1777292120 | 23.33° C | 86% | 1031 hPa | 0 mm | - | 12 W/m² | - |
| 1777291815 | 23.89° C | 86% | 1031.1 hPa | 0 mm | - | 10 W/m² | - |
| 1777291512 | 23.89° C | 85% | 1031 hPa | 0 mm | - | 8 W/m² | - |
| 1777291209 | 23.89° C | 85% | 1030.9 hPa | 0 mm | - | 5 W/m² | - |
| 1777290906 | 23.89° C | 85% | 1030.9 hPa | 0 mm | - | 4 W/m² | - |
| 1777290603 | 23.89° C | 85% | 1030.6 hPa | 0 mm | - | 2 W/m² | - |
| 1777290299 | 23.89° C | 85% | 1030.7 hPa | 0 mm | - | 1 W/m² | - |
| 1777289995 | 23.89° C | 85% | 1030.9 hPa | 0 mm | - | 1 W/m² | - |
* Rain latest hour (hover to see other rain measurements)
** Current wind speed in m/s (hover to see current wind gust speed)